sat.trackr.live / text

‹ back to catalog

STARLINK-1597

NORAD 46142 · 2020-057AB

PAYLOAD ACTIVE UNKNOWN

§ Identity

Operator
Country
US
Launch date
2020-08-18
Launch site
AFETR
Launch vehicle
Mass (kg)
RCS (m²)

Purposes: comms

External: N2YO · Heavens-Above · Gunter

§ Orbital elements

Epoch: 2026-08-24T05:07:13.330272Z

Period
88.09 min
Inclination
53.0198°
Eccentricity
0.0006916
Mean motion
16.34619171 rev/d
Perigee alt
175.6 km
Apogee alt
184.7 km
Semi-major
6,558.3 km
B*
8.0725e-4
RAAN
180.4268°
Arg perigee
239.5482°
Mean anomaly
120.4880°
Rev number
33,276

§ Raw data

STARLINK-15971 46142U 20057AB  26236.21334873  .06047168  12170-4  80725-3 0  99932 46142  53.0198 180.4268 0006916 239.5482 120.4880 16.34619171332762

JSON: /api/v1/satellites/46142 · /tle

For live sub-satellite position, see the globe view (requires WebGL).

§ Visibility from observer

Set your observer location to see the next 7 days of passes ≥ 10°. The values pass through the URL so the page stays shareable.

No JS? Fill the form by hand. The geolocation button needs JavaScript.